Roseau, MN

9:28 PM CDT on September 23, 2017 (GMT -0500)
Roseau Municipal-Billberg

Weather History for KROX - January, 2013

Change the Weather History Date:

Wednesday, January 23, 2013

  Actual Average Record
Temperature  
Mean Temperature -11 °F -  
Max Temperature 1 °F 15 °F 41 °F (2015)
Min Temperature -25 °F -5 °F -37 °F (1966)
Degree Days  
Heating Degree Days 76    
Moisture  
Dew Point -18 °F    
Average Humidity 67    
Maximum Humidity 78    
Minimum Humidity 54    
Precipitation  
Precipitation 0.00 in - - ()
Sea Level Pressure  
Sea Level Pressure 30.35 in    
Wind  
Wind Speed 9 mph (NW)    
Max Wind Speed 18 mph    
Max Gust Speed 24 mph    
Visibility 9 miles    
Events      
Averages and records for this station are not official NWS values.
T = Trace of Precipitation, MM = Missing Value Source: NWS Daily Summary

Daily Weather History Graph

Daily Weather History Graph

Search for Another Location

Airport or City:

Trip Planner

Search our weather history database for the weather conditions in past years. The results will help you decide how hot, cold, wet, or windy it might be!

Date:

Astronomy

Jan. 23, 2013 Rise Set
Actual Time 8:03 AM CST 5:06 PM CST
Civil Twilight 7:28 AM CST 5:41 PM CST
Nautical Twilight 6:49 AM CST 6:20 PM CST
Astronomical Twilight 6:12 AM CST 6:57 PM CST
Moon 2:13 PM CST (1/23) 5:20 AM CST (1/23)
Length of Visible Light 10h 12m
Length of Day
9h 03m
Waxing Gibbous, 89% of the Moon is Illuminated
Jan 23
Waxing Gibbous
Jan 26
Full
Feb 3
Last Quarter
Feb 10
New
Feb 17
First Quarter

Hourly Weather History & Observations

Time (CST) Temp. Windchill Dew Point Humidity Pressure Visibility Wind Dir Wind Speed Gust Speed Precip Events Conditions
12:14 AM -0.4 °F -13.4 °F -7.6 °F 72% 30.08 in 10.0 mi WSW 6.9 mph - N/A   Overcast
12:34 AM -0.4 °F -13.4 °F -7.6 °F 72% 30.07 in 10.0 mi WSW 6.9 mph - N/A   Overcast
12:54 AM -0.4 °F -13.4 °F -7.6 °F 72% 30.06 in 10.0 mi WSW 6.9 mph - N/A   Overcast
1:15 AM 1.4 °F -13.5 °F -5.8 °F 72% 30.06 in 10.0 mi WSW 9.2 mph - N/A   Overcast
1:34 AM 1.4 °F -12.5 °F -5.8 °F 72% 30.07 in 10.0 mi WSW 8.1 mph - N/A   Overcast
1:54 AM 1.4 °F -13.5 °F -5.8 °F 72% 30.07 in 10.0 mi West 9.2 mph - N/A   Mostly Cloudy
2:15 AM 1.4 °F -14.5 °F -5.8 °F 72% 30.07 in 7.0 mi West 10.4 mph - N/A   Mostly Cloudy
2:34 AM -0.4 °F -16.7 °F -5.8 °F 78% 30.06 in 10.0 mi West 10.4 mph - N/A   Overcast
2:54 AM -0.4 °F -14.7 °F -7.6 °F 72% 30.07 in 10.0 mi West 8.1 mph - N/A   Overcast
3:15 AM -0.4 °F -16.7 °F -7.6 °F 72% 30.07 in 10.0 mi West 10.4 mph - N/A   Overcast
3:34 AM -0.4 °F -16.7 °F -7.6 °F 72% 30.07 in 10.0 mi West 10.4 mph - N/A   Overcast
3:54 AM -0.4 °F -15.7 °F -7.6 °F 72% 30.08 in 10.0 mi WNW 9.2 mph 17.3 mph N/A   Overcast
4:15 AM -0.4 °F -16.7 °F -7.6 °F 72% 30.08 in 10.0 mi WNW 10.4 mph - N/A   Overcast
4:34 AM -2.2 °F -18.0 °F -9.4 °F 71% 30.09 in 10.0 mi WNW 9.2 mph - N/A   Mostly Cloudy
4:54 AM -2.2 °F -18.0 °F -9.4 °F 71% 30.09 in 10.0 mi WNW 9.2 mph - N/A   Scattered Clouds
5:15 AM -4.0 °F -19.0 °F -11.2 °F 71% 30.11 in 10.0 mi WNW 8.1 mph - N/A   Clear
5:34 AM -5.8 °F -22.4 °F -11.2 °F 77% 30.12 in 10.0 mi WNW 9.2 mph - N/A   Clear
5:54 AM -5.8 °F -22.4 °F -13.0 °F 71% 30.13 in 10.0 mi NW 9.2 mph - N/A   Clear
6:15 AM -7.6 °F -23.4 °F -13.0 °F 77% 30.14 in 10.0 mi WNW 8.1 mph - N/A   Clear
6:34 AM -7.6 °F -24.6 °F -14.8 °F 71% 30.15 in 10.0 mi NW 9.2 mph - N/A   Clear
6:54 AM -9.4 °F -27.9 °F -14.8 °F 77% 30.16 in 10.0 mi NW 10.4 mph - N/A   Clear
7:15 AM -9.4 °F -27.9 °F -16.6 °F 71% 30.18 in 10.0 mi NW 10.4 mph - N/A   Clear
7:34 AM -9.4 °F -28.9 °F -16.6 °F 71% 30.18 in 10.0 mi NW 11.5 mph - N/A   Clear
7:54 AM -9.4 °F -26.8 °F -16.6 °F 71% 30.19 in 10.0 mi NW 9.2 mph - N/A   Clear
8:15 AM -9.4 °F -25.6 °F -16.6 °F 71% 30.21 in 10.0 mi WNW 8.1 mph - N/A   Scattered Clouds
8:34 AM -9.4 °F -29.8 °F -16.6 °F 71% 30.22 in 10.0 mi NW 12.7 mph - N/A   Mostly Cloudy
8:54 AM -7.6 °F -28.3 °F -14.8 °F 71% 30.24 in 10.0 mi NW 13.8 mph - N/A   Mostly Cloudy
9:15 AM -9.4 °F -30.6 °F -16.6 °F 71% 30.26 in 10.0 mi NW 13.8 mph - N/A   Scattered Clouds
9:34 AM -9.4 °F -30.6 °F -16.6 °F 71% 30.27 in 10.0 mi NNW 13.8 mph - N/A   Clear
9:55 AM -7.6 °F -31.1 °F -16.6 °F 65% 30.28 in 5.0 mi NNW 18.4 mph 24.2 mph N/A   Haze
10:14 AM -7.6 °F -31.1 °F -16.6 °F 65% 30.30 in 5.0 mi NNW 18.4 mph - N/A   Haze
10:34 AM -7.6 °F -30.5 °F -16.6 °F 65% 30.31 in 7.0 mi NNW 17.3 mph - N/A   Clear
10:55 AM -7.6 °F -31.1 °F -16.6 °F 65% 30.33 in 4.0 mi NNW 18.4 mph - N/A   Haze
11:14 AM -9.4 °F -32.8 °F -16.6 °F 71% 30.34 in 4.0 mi NNW 17.3 mph - N/A   Haze
11:34 AM -9.4 °F -31.4 °F -18.4 °F 65% 30.35 in 7.0 mi North 15.0 mph - N/A   Clear
11:55 AM -7.6 °F -28.3 °F -18.4 °F 59% 30.36 in 10.0 mi North 13.8 mph - N/A   Clear
12:14 PM -7.6 °F -30.5 °F -18.4 °F 59% 30.36 in 10.0 mi NNW 17.3 mph - N/A   Clear
12:34 PM -7.6 °F -29.1 °F -18.4 °F 59% 30.38 in 10.0 mi North 15.0 mph - N/A   Clear
12:55 PM -7.6 °F -28.3 °F -18.4 °F 59% 30.39 in 10.0 mi North 13.8 mph - N/A   Clear
1:14 PM -7.6 °F -29.8 °F -16.6 °F 65% 30.39 in 4.0 mi NNW 16.1 mph - N/A   Haze
1:34 PM -7.6 °F -28.3 °F -16.6 °F 65% 30.40 in 4.0 mi North 13.8 mph - N/A   Haze
1:55 PM -7.6 °F -25.7 °F -18.4 °F 59% 30.42 in 5.0 mi North 10.4 mph - N/A   Haze
2:14 PM -7.6 °F -26.6 °F -18.4 °F 59% 30.43 in 10.0 mi NNW 11.5 mph - N/A   Clear
2:34 PM -7.6 °F -23.4 °F -18.4 °F 59% 30.44 in 10.0 mi NNW 8.1 mph - N/A   Clear
2:55 PM -7.6 °F -25.7 °F -20.2 °F 54% 30.45 in 10.0 mi NW 10.4 mph - N/A   Clear
3:14 PM -7.6 °F -24.6 °F -18.4 °F 59% 30.47 in 10.0 mi NW 9.2 mph - N/A   Clear
3:34 PM -7.6 °F -26.6 °F -20.2 °F 54% 30.48 in 10.0 mi NW 11.5 mph - N/A   Clear
3:54 PM -7.6 °F -25.7 °F -18.4 °F 59% 30.49 in 10.0 mi NW 10.4 mph - N/A   Clear
4:14 PM -11.2 °F -31.1 °F -20.2 °F 64% 30.50 in 10.0 mi West 11.5 mph 17.3 mph N/A   Clear
4:35 PM -11.2 °F -30.1 °F -20.2 °F 64% 30.51 in 10.0 mi WNW 10.4 mph - N/A   Clear
4:54 PM -13.0 °F -31.3 °F -20.2 °F 70% 30.52 in 5.0 mi West 9.2 mph - N/A   Haze
5:14 PM -13.0 °F -32.4 °F -22.0 °F 64% 30.53 in 10.0 mi WNW 10.4 mph - N/A   Clear
5:35 PM -14.8 °F -34.6 °F -23.8 °F 64% 30.54 in 10.0 mi WNW 10.4 mph - N/A   Clear
5:54 PM -14.8 °F -34.6 °F -23.8 °F 64% 30.55 in 10.0 mi NW 10.4 mph - N/A   Clear
6:14 PM -14.8 °F -35.6 °F -23.8 °F 64% 30.55 in 10.0 mi NW 11.5 mph - N/A   Clear
6:35 PM -16.6 °F -35.7 °F -25.6 °F 64% 30.56 in 10.0 mi NW 9.2 mph - N/A   Clear
6:54 PM -16.6 °F -34.4 °F -25.6 °F 64% 30.57 in 10.0 mi NW 8.1 mph - N/A   Clear
7:14 PM -18.4 °F -33.4 °F -25.6 °F 70% 30.57 in 10.0 mi WNW 5.8 mph - N/A   Clear
7:35 PM -20.2 °F -37.3 °F -27.4 °F 69% 30.58 in 10.0 mi NNW 6.9 mph - N/A   Clear
7:54 PM -20.2 °F -37.3 °F -27.4 °F 69% 30.58 in 10.0 mi NNW 6.9 mph - N/A   Clear
8:14 PM -20.2 °F -35.5 °F -27.4 °F 69% 30.59 in 10.0 mi NNW 5.8 mph - N/A   Clear
8:35 PM -18.4 °F -28.9 °F -27.4 °F 63% 30.59 in 10.0 mi WNW 3.5 mph - N/A   Clear
8:54 PM -20.2 °F -30.9 °F -27.4 °F 69% 30.60 in 10.0 mi WNW 3.5 mph - N/A   Clear
9:14 PM -20.2 °F -30.9 °F -29.2 °F 63% 30.61 in 10.0 mi WNW 3.5 mph - N/A   Clear
9:35 PM -20.2 °F -30.9 °F -29.2 °F 63% 30.62 in 10.0 mi WNW 3.5 mph - N/A   Clear
9:54 PM -20.2 °F -33.5 °F -27.4 °F 69% 30.62 in 10.0 mi WNW 4.6 mph - N/A   Clear
10:14 PM -20.2 °F -30.9 °F -29.2 °F 63% 30.62 in 10.0 mi WNW 3.5 mph - N/A   Clear
10:34 PM -20.2 °F -30.9 °F -29.2 °F 63% 30.63 in 10.0 mi West 3.5 mph - N/A   Clear
10:54 PM -22.0 °F - -29.2 °F 69% 30.63 in 10.0 mi Calm Calm - N/A   Clear
11:14 PM -23.8 °F -35.0 °F -29.2 °F 76% 30.64 in 10.0 mi West 3.5 mph - N/A   Clear
11:34 PM -23.8 °F - -31.0 °F 69% 30.63 in 10.0 mi Calm Calm - N/A   Clear
11:54 PM -25.6 °F - -32.8 °F 69% 30.63 in 10.0 mi Calm Calm - N/A   Clear